Regional Weather Roundup
Issued by NWS

Home | Current Version | Previous Version | Graphics & Text | Print | Product List | Glossary On
Versions: 1 2 3 4 5 6 7 8 9 10 11 12 13 14 15 16 17 18 19 20 21 22 23 24 25 26 27 28
000
ASUS45 KPSR 250410
RWRAZ

ARIZONA HOURLY REGIONAL WEATHER ROUNDUP
NATIONAL WEATHER SERVICE PHOENIX AZ
900 PM MST MON APR 24 2017

NOTE: FAIR INDICATES FEW OR NO CLOUDS BELOW 12,000 FEET WITH NO
SIGNIFICANT WEATHER AND/OR OBSTRUCTIONS TO VISIBILITY.

AZZ001>003-036-250500-
NORTHWEST ARIZONA

CITY           SKY/WX    TMP DP  RH WIND       PRES   REMARKS
BULLHEAD CITY  CLOUDY    79  32  18 S12       29.57R
KINGMAN        CLOUDY    63  32  31 S9        29.70S
$$

AZZ004>008-015-016-018-250500-
NORTH CENTRAL ARIZONA

CITY           SKY/WX    TMP DP  RH WIND       PRES   REMARKS
GRAND CANYON   MOCLDY    52  28  39 W10G18    29.82S
WILLIAMS       CLOUDY    52  28  40 SW10G20   29.86S
PRESCOTT       MOCLDY    59  31  34 S5        29.81S
FLAGSTAFF      CLOUDY    52  28  39 SW20G29   29.84S
PAYSON         MOCLDY    63  14  15 SW10      29.85S
PAGE           PTCLDY    69  24  18 W10G22    29.64R
$$

AZZ009>014-017-250500-
NORTHEAST ARIZONA

CITY           SKY/WX    TMP DP  RH WIND       PRES   REMARKS
WINSLOW        CLOUDY    63  17  17 S20       29.75F
SAINT JOHNS    MOCLDY    63  21  20 W15       29.81R
WINDOW ROCK    CLOUDY    58  18  21 SW15G25   29.81R
SHOW LOW       CLOUDY    55  18  22 SW13      29.88R
$$

AZZ540-542>544-546-548-250500-
GREATER PHOENIX AREA

CITY           SKY/WX    TMP DP  RH WIND       PRES   REMARKS
PHOENIX        CLOUDY    80  25  13 SW8       29.62R
BUCKEYE        CLOUDY    75  28  17 SW6       29.63S
LUKE AFB       MOCLDY    79  30  16 SW13      29.60S
DEER VALLEY    MOCLDY    79  23  12 SW10      29.63S
SCOTTSDALE     MOCLDY    81  22  11 SW6       29.66R
CHANDLER       CLEAR     81  16   9 W6        29.64R
$$

AZZ539-553-250500-
SOUTHWEST MARICOPA COUNTY AND PINAL COUNTY

CITY           SKY/WX    TMP DP  RH WIND       PRES   REMARKS
CASA GRANDE    MOCLDY    79  25  13 SW10      29.67R
GILA BEND      MOCLDY    81  31  16 SW13      29.63R
$$

AZZ503-504-507>509-250500-
SOUTHEAST ARIZONA

CITY           SKY/WX    TMP DP  RH WIND       PRES   REMARKS
TUCSON         MOCLDY    79  18  10 S8        29.76R
DAVIS-MONTHAN  MOCLDY    77  19  11 SW7       29.76R
NOGALES        CLOUDY    70  14  11 S10       29.87R
SIERRA VISTA   CLOUDY    71   9   9 W10G20    29.88S
DOUGLAS        CLOUDY    73  20  13 SW14      29.84S
SAFFORD        PTCLDY    75  19  12 NW15      29.70R
$$

AZZ532-250500-
SOUTHWEST ARIZONA

CITY           SKY/WX    TMP DP  RH WIND       PRES   REMARKS
YUMA           CLOUDY    77  44  30 W12G23    29.66R
$$

CAZ041-043-047-048-061-525>527-560>570-250500-
SOUTHERN CALIFORNIA

CITY           SKY/WX    TMP DP  RH WIND       PRES   REMARKS
DOWNTOWN L.A.  PTCLDY    60  52  74 CALM      29.86F
L.A. AIRPORT   PTCLDY    58  53  84 SW5       29.87S
SAN DIEGO      MOCLDY    63  54  72 S8        29.93R
BURBANK        PTCLDY    62  48  60 SE5       29.86R
ONTARIO        CLOUDY    60  49  66 W9        29.86S
RIVERSIDE      MOCLDY    62  52  69 VRB7      29.87R
PALM SPRINGS   PTCLDY    77  48  35 NW21G32   29.65S
EL CENTRO NAS  CLOUDY    74  41  30 W25       29.69R
IMPERIAL       MOCLDY    72  46  39 W13G18    29.68R
BLYTHE         CLOUDY    78  48  34 E8        29.61R
NEEDLES        CLOUDY    79  31  17 NW16      29.61R
$$

NVZ020-UTZ003-250500-
SOUTHERN NEVADA-UTAH

CITY           SKY/WX    TMP DP  RH WIND       PRES   REMARKS
LAS VEGAS      MOCLDY    75  29  18 S9        29.59R
SALT LAKE CITY MOCLDY    46  42  86 SW3       29.73F
$$

NMZ009-TXZ055-250500-
NEW MEXICO-WEST TEXAS

CITY           SKY/WX    TMP DP  RH WIND       PRES   REMARKS
ALBUQUERQUE    CLOUDY    70  17  13 W21G29    29.73R
EL PASO        CLOUDY    81  15   8 W25G35    29.73R
$$


........................KEY........................
SKY/WX - SKY CONDITION/WEATHER
TMP    - TEMPERATURE IN FAHRENHEIT
DP     - DEW POINT IN FAHRENHEIT
RH     - RELATIVE HUMIDITY IN PERCENT
WIND   - DIRECTION AND SPEED IN MILES PER HOUR (MPH)
VRB    - VARIABLE WIND DIRECTION
PRES   - MEAN SEA LEVEL PRESSURE IN INCHES OF MERCURY
         F - FALLING PRESSURE   R - RISING PRESSURE
         S - STEADY PRESSURE
VSB    - VISIBILITY IN MILES
HX     - HEAT INDEX IN FAHRENHEIT
WCI    - WIND CHILL INDEX IN FAHRENHEIT
TC     - TEMPERATURE IN CELSIUS WHICH IS ALSO KNOWN AS
         TEMPERATURE IN CENTIGRADE
AFB    - AIR FORCE BASE
         LUKE AFB IS LUKE AIR FORCE BASE
         DAVIS-MONTHAN IS DAVIS-MONTHAN AIR FORCE BASE
NAS    - NAVAL AIR STATION
         EL CENTRO NAS IS EL CENTRO NAVAL AIR STATION
N/A    - NOT AVAILABLE





USA.gov is the U.S. government's official web portal to all federal, state and local government web resources and services.